Regional Weather Roundup
Issued by NWS Green Bay, WI

Home | Current Version | Previous Version | Text Only | Print | Product List | Glossary On
Versions: 1 2 3 4 5 6 7 8 9 10 11 12 13 14 15 16 17 18 19 20 21 22 23 24 25 26 27 28 29 30 31 32 33 34 35 36 37 38 39 40 41 42 43 44 45 46 47 48 49 50
000
ASUS43 KGRB 032110
RWRGRB

NORTH-CENTRAL AND NORTHEAST WISCONSIN REGIONAL WEATHER ROUNDUP
NATIONAL WEATHER SERVICE GREEN BAY WI
400 PM CDT SUN MAY 03 2015

WIZ005-009-010>012-018-019-032200-
NORTH CENTRAL WISCONSIN

CITY           SKY/WX    TMP DP  RH WIND       PRES   REMARKS
IRONWOOD       CLOUDY    75  52  43 NW14G20   29.73S
MANITOWISH WTR PTSUNNY   77  48  35 W12       29.77F
ARBOR VITAE    PTSUNNY   80  48  33 W12G17    29.77F
EAGLE RIVER    PTSUNNY   77  44  29 W13G20    29.77F
LAND O LAKES   PTSUNNY   79  44  28 W10G17    29.77F
RHINELANDER    MOSUNNY   78  50  37 SW14G21   29.79F
PHILLIPS       MOSUNNY   77  53  43 SW8       29.78F
ANTIGO         MOSUNNY   77  52  41 SW14G20   29.80F
TOMAHAWK       MOSUNNY   78  50  37 CALM      29.79F
MERRILL        MOSUNNY   80  53  39 W9        29.79F
$$

WIZ013-073-032200-
NORTHEAST WISCONSIN

CITY           SKY/WX    TMP DP  RH WIND       PRES   REMARKS
IRON MOUNTAIN  MOSUNNY   81  48  31 SW17G24   29.73F
MARINETTE      MOSUNNY   79  52  38 S20G29    29.78F
OCONTO         MOSUNNY   80  53  39 SW17G23   29.79S
$$

WIZ017-030-035>037-045-032200-
CENTRAL WISCONSIN

CITY           SKY/WX    TMP DP  RH WIND       PRES   REMARKS
MEDFORD        MOSUNNY   76  52  43 SW5       29.80F
WAUSAU         MOSUNNY   78  51  38 SW10G21   29.78F
MOSINEE        MOSUNNY   77  52  41 SW10G20   29.82S
MARSHFIELD     MOSUNNY   80  52  37 SW9       29.80F
WISC RAPIDS    MOSUNNY   80  49  33 SW13G18   29.81F
STEVENS POINT  MOSUNNY   77  51  40 SW9G18    29.81S
WAUPACA        PTSUNNY   80  51  35 SW14G20   29.81F
SHAWANO        PTSUNNY   81  49  33 S5G21     29.79F
CLINTONVILLE   PTSUNNY   79  50  36 SW17G25   29.80S
$$

WIZ038-039-048-051-032200-
FOX VALLEY

CITY           SKY/WX    TMP DP  RH WIND       PRES   REMARKS
NWS GREEN BAY  MOSUNNY   77  54  44 S20G26    29.82F
APPLETON       PTSUNNY   77  52  41 SW21G28   29.83F
OSHKOSH        CLOUDY    76  55  48 S20G26    29.83S
FOND DU LAC    CLOUDY    77  53  43 SW21G30   29.85S
$$

WIZ022-050-052-032200-
EAST CENTRAL WISCONSIN

CITY           SKY/WX    TMP DP  RH WIND       PRES   REMARKS
STURGEON BAY   MOSUNNY   66  46  48 S16       29.84F
MANITOWOC      CLOUDY    64  48  56 S17       29.86F
SHEBOYGAN      PTSUNNY   74  52  46 S9        29.86S
$$

LMZ563-521-522-541>543-032200-
LAKESHORE

STATION/POSITION TIME  TEMP    WIND        PRES    VSBY  WAVE
                       AIR SEA DIR/SP/G                  HT/PER
                 (UTC) (F)     (DEG/KT/KT) (MB)    (MI)  (FT/S)
SHEBOYGAN LKSHOR 2100   50     170/ 19/ 20 1011.4F
KEWAUNEE LKSHORE 2100   48     180/ 15/ 17 1010.1F
NORTHPORT PIER   2100   62     150/ 11/ 16 1010.2F
CHAMBERS ISLAND  2100   72     140/  8/ 15 1009.5S
MENOMINEE LKSHOR 2100   54     140/ 13/ 14 1009.7F
$$



USA.gov is the U.S. government's official web portal to all federal, state and local government web resources and services.